Weather History for Boulder City, NV

Change the Weather History Date:

Friday, July 26, 2013

  Actual Average (KLAS) Record (KLAS)
Temperature  
Mean Temperature 92 °F 93 °F  
Max Temperature 102 °F 104 °F 116 °F (1943)
Min Temperature 82 °F 81 °F 65 °F (1944)
Degree Days  
Heating Degree Days 0 0  
Month to date heating degree days 0  
Since 1 June heating degree days 1  
Since 1 July heating degree days 0  
Cooling Degree Days 27 28  
Month to date cooling degree days 715  
Year to date cooling degree days 1915  
Since 1 June cooling degree days 1365  
Growing Degree Days 42 (Base 50)    
Moisture  
Dew Point 58 °F    
Average Humidity 32    
Maximum Humidity 48    
Minimum Humidity 22    
Precipitation  
Precipitation 0.00 in 0.01 in 0.41 in (1957)
Month to date precipitation 0.31  
Year to date precipitation 2.39  
Snow  
Snow 0.00 in 0.00 in 0.00 in ()
Month to date snowfall 0.0  
Since 1 June snowfall 0.0  
Since 1 July snowfall 0.0  
Snow Depth -    
Sea Level Pressure  
Sea Level Pressure 30.01 in    
Wind  
Wind Speed 9 mph (SE)    
Max Wind Speed 29 mph    
Max Gust Speed 37 mph    
Visibility 10 miles    
Events Thunderstorm    
T = Trace of Precipitation, MM = Missing Value Source: NWS Daily Summary

Daily Weather History Graph

Daily Weather History Graph

Search for Another Location

Airport:

Trip Planner

Search our weather history database for the weather conditions in past years. The results will help you decide how hot, cold, wet, or windy it might be!

Date:

Astronomy

Jul. 26, 2013 Rise Set
Actual Time 5:42 AM PDT 7:48 PM PDT
Civil Twilight 5:13 AM PDT 8:17 PM PDT
Nautical Twilight 4:38 AM PDT 8:52 PM PDT
Astronomical Twilight 4:01 AM PDT 9:30 PM PDT
Moon 10:20 PM PDT (7/26) 10:12 AM PDT (7/26)
Length of Visible Light 15h 03m
Length of Day
14h 06m
Waning Gibbous, 79% of the Moon is Illuminated
Jul 26
Waning Gibbous
Jul 29
Last Quarter
Aug 6
New
Aug 14
First Quarter
Aug 20
Full

Hourly Weather History & Observations

Time (PDT) Temp. Heat Index Dew Point Humidity Pressure Visibility Wind Dir Wind Speed Gust Speed Precip Events Conditions
12:15 AM 91.4 °F 89.4 °F 55.4 °F 29% 29.98 in 10.0 mi South 8.1 mph - N/A Thunderstorm Clear
12:35 AM 91.4 °F 89.4 °F 55.4 °F 29% 29.98 in 10.0 mi South 9.2 mph 16.1 mph N/A   Clear
12:55 AM 91.4 °F 89.4 °F 55.4 °F 29% 29.98 in 10.0 mi South 5.8 mph - N/A   Clear
1:15 AM 89.6 °F 87.7 °F 55.4 °F 31% 29.97 in 10.0 mi Calm Calm - N/A   Clear
1:35 AM 87.8 °F 87.1 °F 59.0 °F 38% 29.98 in 10.0 mi NE 6.9 mph - N/A   Clear
1:55 AM 87.8 °F 86.5 °F 57.2 °F 35% 29.98 in 10.0 mi NE 3.5 mph - N/A Thunderstorm Clear
2:15 AM 86.0 °F 84.9 °F 57.2 °F 37% 29.99 in 10.0 mi East 6.9 mph - N/A   Clear
2:35 AM 87.8 °F 86.5 °F 57.2 °F 35% 29.99 in 10.0 mi East 8.1 mph - N/A Thunderstorm Clear
2:55 AM 87.8 °F 86.5 °F 57.2 °F 35% 29.99 in 10.0 mi East 3.5 mph - N/A   Clear
3:15 AM 84.2 °F 83.8 °F 59.0 °F 42% 30.00 in 10.0 mi North 5.8 mph - N/A   Clear
3:35 AM 84.2 °F 84.4 °F 60.8 °F 45% 30.00 in 10.0 mi NNE 5.8 mph - N/A Thunderstorm Clear
3:55 AM 84.2 °F 83.8 °F 59.0 °F 42% 30.00 in 10.0 mi NNE 3.5 mph - N/A   Clear
4:15 AM 82.4 °F 82.9 °F 60.8 °F 48% 30.00 in 10.0 mi NE 3.5 mph - N/A   Clear
4:35 AM 82.4 °F 82.9 °F 60.8 °F 48% 30.00 in 10.0 mi Calm Calm - N/A   Clear
4:55 AM 86.0 °F 84.9 °F 57.2 °F 37% 30.00 in 10.0 mi Calm Calm - N/A   Clear
5:15 AM 82.4 °F 82.9 °F 60.8 °F 48% 30.01 in 10.0 mi East 3.5 mph - N/A   Clear
5:35 AM 86.0 °F 84.9 °F 57.2 °F 37% 30.02 in 10.0 mi ESE 4.6 mph - N/A Thunderstorm Clear
5:55 AM 84.2 °F 83.5 °F 57.2 °F 40% 30.02 in 10.0 mi ESE 4.6 mph - N/A   Clear
6:15 AM 86.0 °F 85.4 °F 59.0 °F 40% 30.03 in 10.0 mi East 3.5 mph - N/A   Clear
6:35 AM 84.2 °F 83.8 °F 59.0 °F 42% 30.03 in 10.0 mi ENE 4.6 mph - N/A   Clear
6:55 AM 86.0 °F 85.4 °F 59.0 °F 40% 30.04 in 10.0 mi SSE 6.9 mph - N/A   Clear
7:15 AM 86.0 °F 85.4 °F 59.0 °F 40% 30.04 in 10.0 mi SE 11.5 mph - N/A   Clear
7:35 AM 87.8 °F 86.5 °F 57.2 °F 35% 30.05 in 10.0 mi South 4.6 mph - N/A   Clear
7:55 AM 87.8 °F 86.5 °F 57.2 °F 35% 30.05 in 10.0 mi Calm Calm - N/A   Clear
8:15 AM 89.6 °F 88.9 °F 59.0 °F 36% 30.06 in 10.0 mi ESE 4.6 mph - N/A   Clear
8:35 AM 91.4 °F 90.7 °F 59.0 °F 34% 30.06 in 10.0 mi SE 9.2 mph - N/A   Clear
8:55 AM 91.4 °F 90.7 °F 59.0 °F 34% 30.06 in 10.0 mi SSE 10.4 mph - N/A   Clear
9:15 AM 91.4 °F 90.7 °F 59.0 °F 34% 30.06 in 10.0 mi SE 10.4 mph - N/A   Clear
9:35 AM 91.4 °F 90.7 °F 59.0 °F 34% 30.06 in 10.0 mi SSE 8.1 mph - N/A   Clear
9:55 AM 95.0 °F 94.4 °F 59.0 °F 30% 30.06 in 10.0 mi SSE 11.5 mph 16.1 mph N/A   Clear
10:15 AM 95.0 °F 93.7 °F 57.2 °F 28% 30.06 in 10.0 mi SSE 4.6 mph - N/A   Clear
10:35 AM 95.0 °F 94.4 °F 59.0 °F 30% 30.05 in 10.0 mi SE 9.2 mph - N/A   Clear
10:55 AM 96.8 °F 95.8 °F 57.2 °F 27% 30.05 in 10.0 mi ESE 10.4 mph - N/A Thunderstorm Clear
11:15 AM 98.6 °F 97.6 °F 57.2 °F 25% 30.05 in 10.0 mi SSE 10.4 mph 19.6 mph N/A   Clear
11:35 AM 100.4 °F 99.7 °F 57.2 °F 24% 30.04 in 10.0 mi SE 13.8 mph 21.9 mph N/A   Clear
11:55 AM 100.4 °F 99.7 °F 57.2 °F 24% 30.04 in 10.0 mi SSE 15.0 mph 20.7 mph N/A   Clear
12:15 PM 100.4 °F 99.7 °F 57.2 °F 24% 30.03 in 10.0 mi SSE 19.6 mph 26.5 mph N/A   Clear
12:35 PM 100.4 °F 99.7 °F 57.2 °F 24% 30.03 in 10.0 mi SE 17.3 mph 27.6 mph N/A   Clear
12:55 PM 100.4 °F 99.7 °F 57.2 °F 24% 30.02 in 10.0 mi SSE 21.9 mph 27.6 mph N/A   Clear
1:15 PM 100.4 °F 99.7 °F 57.2 °F 24% 30.01 in 10.0 mi SE 19.6 mph 28.8 mph N/A   Clear
1:35 PM 102.2 °F 101.4 °F 57.2 °F 22% 30.01 in 10.0 mi SE 26.5 mph 33.4 mph N/A   Clear
1:55 PM 102.2 °F 101.4 °F 57.2 °F 22% 30.00 in 10.0 mi SSE 23.0 mph 32.2 mph N/A   Clear
2:15 PM 102.2 °F 101.4 °F 57.2 °F 22% 29.99 in 10.0 mi SSE 26.5 mph 32.2 mph N/A   Clear
2:35 PM 100.4 °F 99.7 °F 57.2 °F 24% 29.99 in 10.0 mi SSE 28.8 mph 36.8 mph N/A   Clear
2:55 PM 98.6 °F 98.5 °F 59.0 °F 27% 30.00 in 10.0 mi SSE 27.6 mph 35.7 mph N/A   Clear
3:15 PM 98.6 °F 97.2 °F 55.4 °F 24% 30.00 in 10.0 mi SSW 15.0 mph 27.6 mph N/A   Clear
3:35 PM 100.4 °F 98.8 °F 55.4 °F 22% 29.99 in 10.0 mi SSW 20.7 mph 24.2 mph N/A   Clear
3:55 PM 100.4 °F 98.8 °F 55.4 °F 22% 29.98 in 10.0 mi SSW 16.1 mph 25.3 mph N/A   Clear
4:15 PM 100.4 °F 98.8 °F 55.4 °F 22% 29.97 in 10.0 mi SW 15.0 mph 20.7 mph N/A   Clear
4:35 PM 100.4 °F 98.8 °F 55.4 °F 22% 29.97 in 10.0 mi SW 17.3 mph 23.0 mph N/A   Clear
4:55 PM 100.4 °F 98.8 °F 55.4 °F 22% 29.97 in 10.0 mi SW 11.5 mph - N/A   Clear
5:15 PM 98.6 °F 97.2 °F 55.4 °F 24% 29.97 in 10.0 mi West 15.0 mph - N/A   Clear
5:35 PM 100.4 °F 98.8 °F 55.4 °F 22% 29.96 in 10.0 mi WSW 11.5 mph - N/A   Clear
5:55 PM 98.6 °F 97.2 °F 55.4 °F 24% 29.95 in 10.0 mi WSW 13.8 mph - N/A   Clear
6:15 PM 98.6 °F 97.2 °F 55.4 °F 24% 29.95 in 10.0 mi WSW 11.5 mph - N/A Thunderstorm Clear
6:35 PM 98.6 °F 96.4 °F 53.6 °F 22% 29.95 in 10.0 mi SSW 10.4 mph - N/A   Clear
6:55 PM 98.6 °F 97.2 °F 55.4 °F 24% 29.96 in 10.0 mi SSW 8.1 mph - N/A   Clear
7:15 PM 93.2 °F 92.6 °F 59.0 °F 32% 29.96 in 10.0 mi SSE 15.0 mph 20.7 mph N/A Thunderstorm Clear
7:35 PM 93.2 °F 93.3 °F 60.8 °F 34% 29.97 in 10.0 mi SSE 15.0 mph - N/A Thunderstorm Clear
7:55 PM 91.4 °F 91.4 °F 60.8 °F 36% 29.97 in 10.0 mi SSE 16.1 mph - N/A   Clear
8:15 PM 91.4 °F 91.4 °F 60.8 °F 36% 29.98 in 10.0 mi SSE 15.0 mph 19.6 mph N/A   Clear
8:35 PM 89.6 °F 88.9 °F 59.0 °F 36% 29.99 in 10.0 mi SSE 13.8 mph - N/A   Clear
8:55 PM 89.6 °F 88.9 °F 59.0 °F 36% 29.99 in 10.0 mi SSE 16.1 mph - N/A   Clear
9:15 PM 89.6 °F 88.9 °F 59.0 °F 36% 30.00 in 10.0 mi SSE 12.7 mph - N/A   Clear
9:35 PM 89.6 °F 88.9 °F 59.0 °F 36% 30.01 in 10.0 mi SE 11.5 mph - N/A   Clear
9:55 PM 89.6 °F 88.9 °F 59.0 °F 36% 30.02 in 10.0 mi SE 10.4 mph - N/A   Clear
10:15 PM 89.6 °F 88.1 °F 57.2 °F 33% 30.02 in 10.0 mi SE 11.5 mph - N/A   Clear
10:35 PM 89.6 °F 88.1 °F 57.2 °F 33% 30.02 in 10.0 mi SE 8.1 mph - N/A   Clear
10:55 PM 89.6 °F 88.1 °F 57.2 °F 33% 30.02 in 10.0 mi ESE 8.1 mph - N/A   Clear
11:15 PM 89.6 °F 88.1 °F 57.2 °F 33% 30.02 in 10.0 mi SE 6.9 mph - N/A   Clear
11:35 PM 87.8 °F 86.5 °F 57.2 °F 35% 30.04 in 10.0 mi East 5.8 mph - N/A   Clear
11:55 PM 86.0 °F 86.1 °F 60.8 °F 43% 30.04 in 10.0 mi NNE 9.2 mph - N/A   Partly Cloudy